[ ตารางข้อมูล ] [ Min-Max ] [ วันนี้4 ] [ วันนี้2 ] [ เทียบ3วัน A ] [ เทียบ4วัน B ]   

วันนี้2   [ ◀ ช่วงเก่ากว่า ] [ ช่วงที่ 338 ] [ ช่วงใหม่กว่า ▶ ] [ ล่าสุด ]    [ 3 ชั่วโมง ] [ 6 ชั่วโมง ] [ 12 ชั่วโมง ] [ 24 ชั่วโมง ]   วันนี้2

อุณภูมิตู้ Knockdown4529  ราย 3 ชั่วโมง  ที่วัดได้ ในช่วงวันเวลา 29/03/2026 (15:13) ถึง 29/03/2026 (18:13) 
ความชื้นในตู้ Knockdown4529  ราย 3 ชั่วโมง  ที่วัดได้ ในช่วงวันเวลา 29/03/2026 (15:13) ถึง 29/03/2026 (18:13) 

 
DS18B20SHTC3 
IDDate d/m/Y & Timedata1
สูง
data2
ต่ำ
data3
นอก
temp
pcb
hum
pcb
Time
 6959  29/03/2026 18:09:12  30.1  30.1  29.0  30.0  71.1  18:09 
 6958  29/03/2026 18:04:30  30.1  30.1  29.0  30.1  71.2  18:04 
 6957  29/03/2026 17:59:48  30.1  30.1  29.0  30.0  71.0  17:59 
 6956  29/03/2026 17:55:06  30.1  30.1  29.1  30.1  71.0  17:55 
 6955  29/03/2026 17:50:24  30.1  30.2  29.1  30.2  71.0  17:50 
 6954  29/03/2026 17:45:42  30.2  30.2  29.1  30.2  71.0  17:45 
 6953  29/03/2026 17:41:00  30.2  30.2  29.1  30.2  70.8  17:41 
 6952  29/03/2026 17:36:19  30.2  30.2  29.0  30.2  70.9  17:36 
 6951  29/03/2026 17:31:38  30.2  30.2  29.2  30.3  70.8  17:31 
 6950  29/03/2026 17:26:56  30.3  30.3  29.3  30.2  70.8  17:26 
 6949  29/03/2026 17:22:14  30.3  30.3  29.1  30.3  70.7  17:22 
 6948  29/03/2026 17:17:33  30.4  30.4  29.1  30.4  70.6  17:17 
 6947  29/03/2026 17:12:51  30.4  30.4  29.2  30.4  70.5  17:12 
 6946  29/03/2026 17:08:09  30.4  30.4  29.4  30.4  70.4  17:08 
 6945  29/03/2026 17:03:27  30.4  30.4  29.5  30.4  70.3  17:03 
 6944  29/03/2026 16:58:45  30.5  30.4  29.6  30.4  70.2  16:58 
 6943  29/03/2026 16:54:03  30.6  30.4  29.9  30.4  70.2  16:54 
 6942  29/03/2026 16:49:21  30.6  30.4  29.9  30.4  70.1  16:49 
 6941  29/03/2026 16:44:40  30.6  30.4  30.1  30.4  70.0  16:44 
 6940  29/03/2026 16:39:58  30.6  30.4  30.4  30.5  70.1  16:39 
 6939  29/03/2026 16:35:13  30.6  30.4  30.7  30.4  69.9  16:35 
 6938  29/03/2026 16:30:32  30.7  30.4  30.5  30.5  69.9  16:30 
 6937  29/03/2026 16:25:51  30.7  30.4  30.4  30.6  69.8  16:25 
 6936  29/03/2026 16:21:09  30.7  30.4  30.5  30.5  69.7  16:21 

Data every 5 minute.


ใช้เวลาประมวลผล 0.00185 วินาที